TimePST,TemperatureF,Dew PointF,Humidity,Sea Level PressureIn,VisibilityMPH,Wind Direction,Wind SpeedMPH,Gust SpeedMPH,PrecipitationIn,Events,Conditions,WindDirDegrees,DateUTC
12:58 AM,57.2,53.4,87,30.00,10.0,ENE,2.3,-,N/A,,Overcast,70,2012-12-18 08:58:00
1:58 AM,57.0,55.0,93,30.00,10.0,SSW,3.5,-,N/A,,Overcast,200,2012-12-18 09:58:00
2:18 AM,57.2,55.4,94,29.97,10.0,SSE,3.5,-,N/A,,Overcast,160,2012-12-18 10:18:00
2:58 AM,57.2,54.5,91,29.96,10.0,South,2.3,-,N/A,,Overcast,180,2012-12-18 10:58:00
3:03 AM,57.2,55.4,94,29.95,10.0,South,3.5,-,N/A,,Overcast,170,2012-12-18 11:03:00
3:38 AM,57.2,55.4,94,29.94,10.0,South,4.6,-,N/A,,Overcast,180,2012-12-18 11:38:00
3:58 AM,57.4,55.9,95,29.93,10.0,South,3.5,-,N/A,,Overcast,170,2012-12-18 11:58:00
4:28 AM,57.2,55.4,94,29.92,10.0,Calm,Calm,-,N/A,,Overcast,0,2012-12-18 12:28:00
4:35 AM,57.2,55.4,94,29.92,10.0,ESE,2.3,-,N/A,,Overcast,110,2012-12-18 12:35:00
4:37 AM,57.2,55.4,94,29.92,10.0,East,1.2,-,N/A,,Light Drizzle,80,2012-12-18 12:37:00
4:42 AM,57.2,55.4,94,29.92,6.0,East,1.2,-,N/A,,Light Drizzle,80,2012-12-18 12:42:00
4:52 AM,57.2,57.2,100,29.91,2.5,Calm,Calm,-,N/A,Rain,Rain,0,2012-12-18 12:52:00
4:57 AM,57.2,57.2,100,29.91,2.0,NNW,1.2,-,N/A,Rain,Heavy Rain,340,2012-12-18 12:57:00
4:58 AM,57.2,57.2,100,29.92,2.0,Calm,Calm,-,0.02,Rain,Heavy Rain,0,2012-12-18 12:58:00
5:03 AM,57.2,57.2,100,29.91,2.5,Calm,Calm,-,N/A,Rain,Rain,0,2012-12-18 13:03:00
5:08 AM,57.2,57.2,100,29.91,2.5,Calm,Calm,-,N/A,Rain,Light Rain,0,2012-12-18 13:08:00
5:13 AM,55.4,55.4,100,29.91,3.0,Calm,Calm,-,N/A,Rain,Rain,0,2012-12-18 13:13:00
5:23 AM,55.4,55.4,100,29.91,2.0,Calm,Calm,-,N/A,Rain,Heavy Rain,0,2012-12-18 13:23:00
5:53 AM,55.4,55.4,100,29.91,3.0,South,3.5,-,N/A,,Light Drizzle,180,2012-12-18 13:53:00
5:58 AM,56.1,56.1,100,29.92,4.0,SSW,4.6,-,0.11,,Light Drizzle,200,2012-12-18 13:58:00
6:10 AM,55.4,55.4,100,29.91,3.0,SW,10.4,-,N/A,,Overcast,220,2012-12-18 14:10:00
6:25 AM,55.4,55.4,100,29.91,3.0,SW,9.2,-,N/A,,Overcast,230,2012-12-18 14:25:00
6:48 AM,55.4,55.4,100,29.90,1.5,South,8.1,-,N/A,,Overcast,190,2012-12-18 14:48:00
6:55 AM,55.4,55.4,100,29.90,3.0,South,5.8,-,N/A,,Overcast,170,2012-12-18 14:55:00
6:58 AM,55.2,55.2,100,29.91,3.0,South,5.8,-,0.04,,Light Drizzle,170,2012-12-18 14:58:00
7:02 AM,55.4,55.4,100,29.90,7.0,South,5.8,-,N/A,Rain,Light Rain,170,2012-12-18 15:02:00
7:12 AM,55.4,55.4,100,29.90,7.0,South,4.6,-,N/A,,Overcast,170,2012-12-18 15:12:00
7:42 AM,55.4,55.4,100,29.89,7.0,South,4.6,-,N/A,,Overcast,180,2012-12-18 15:42:00
7:47 AM,55.4,55.4,100,29.89,7.0,South,4.6,-,N/A,,Overcast,170,2012-12-18 15:47:00
7:58 AM,55.9,55.9,100,29.90,7.0,SSE,3.5,-,0.00,,Overcast,160,2012-12-18 15:58:00
8:23 AM,57.2,57.2,100,29.89,7.0,South,5.8,-,N/A,,Overcast,170,2012-12-18 16:23:00
8:58 AM,57.6,57.4,99,29.91,10.0,SSW,8.1,-,0.01,,Overcast,210,2012-12-18 16:58:00
9:08 AM,59.0,59.0,100,29.89,10.0,South,5.8,-,N/A,,Overcast,190,2012-12-18 17:08:00
9:18 AM,59.0,59.0,100,29.89,10.0,SSW,6.9,-,N/A,,Overcast,210,2012-12-18 17:18:00
9:23 AM,59.0,59.0,100,29.90,10.0,SSW,6.9,-,N/A,,Mostly Cloudy,210,2012-12-18 17:23:00
9:33 AM,60.8,60.8,100,29.90,10.0,WSW,8.1,-,N/A,,Mostly Cloudy,240,2012-12-18 17:33:00
9:43 AM,60.8,59.0,94,29.89,10.0,WSW,11.5,-,N/A,,Mostly Cloudy,250,2012-12-18 17:43:00
9:45 AM,60.8,57.2,88,29.89,10.0,WSW,8.1,-,N/A,Rain,Light Rain,250,2012-12-18 17:45:00
9:58 AM,59.9,56.1,87,29.90,10.0,WSW,8.1,-,0.00,,Overcast,250,2012-12-18 17:58:00
10:02 AM,59.0,55.4,88,29.89,10.0,WSW,9.2,-,N/A,Rain,Light Rain,250,2012-12-18 18:02:00
10:14 AM,60.8,55.4,82,29.89,10.0,WSW,9.2,-,N/A,,Overcast,250,2012-12-18 18:14:00
10:58 AM,61.2,51.3,70,29.89,10.0,West,13.8,-,0.00,,Overcast,270,2012-12-18 18:58:00
11:19 AM,60.8,50.0,68,29.86,10.0,WSW,11.5,-,N/A,Rain,Light Rain,240,2012-12-18 19:19:00
11:26 AM,60.8,51.8,72,29.87,10.0,WSW,11.5,-,N/A,,Overcast,250,2012-12-18 19:26:00
11:58 AM,60.8,48.0,63,29.86,10.0,WSW,11.5,-,0.00,,Overcast,250,2012-12-18 19:58:00
12:58 PM,62.6,47.5,58,29.84,10.0,WSW,12.7,-,N/A,,Mostly Cloudy,250,2012-12-18 20:58:00
1:58 PM,60.4,42.6,52,29.84,10.0,West,12.7,-,N/A,,Scattered Clouds,260,2012-12-18 21:58:00
2:58 PM,60.8,43.2,52,29.82,10.0,WSW,17.3,-,N/A,,Partly Cloudy,240,2012-12-18 22:58:00
3:58 PM,59.4,43.5,56,29.82,10.0,West,18.4,-,N/A,,Partly Cloudy,260,2012-12-18 23:58:00
4:58 PM,57.2,29.5,35,29.84,10.0,WNW,15.0,23.0,N/A,,Partly Cloudy,300,2012-12-19 00:58:00
5:58 PM,55.0,26.6,33,29.87,10.0,NW,13.8,18.4,N/A,,Clear,310,2012-12-19 01:58:00
6:58 PM,53.6,23.7,31,29.92,10.0,NW,13.8,20.7,N/A,,Clear,310,2012-12-19 02:58:00
7:58 PM,52.5,24.3,33,29.95,10.0,NW,17.3,27.6,N/A,,Clear,320,2012-12-19 03:58:00
8:58 PM,50.5,23.9,35,29.98,10.0,WNW,13.8,20.7,N/A,,Clear,300,2012-12-19 04:58:00
9:58 PM,50.2,24.6,37,30.00,10.0,WNW,16.1,23.0,N/A,,Clear,290,2012-12-19 05:58:00
10:58 PM,49.1,27.1,43,30.03,10.0,NW,13.8,21.9,N/A,,Clear,310,2012-12-19 06:58:00
11:58 PM,48.7,25.7,41,30.04,10.0,WNW,16.1,25.3,N/A,,Clear,290,2012-12-19 07:58:00